Location: Borotín
(49.5055°N, 14.6142°E)
Time: 12:38:58
(UTC+00:00)

Cosmos 2315 Rocket - Pass Details

Date: 27 May 2022
Orbit: 966 x 1002 km, 82.9° (Epoch: 26 June)

Event Time Altitude Azimuth Distance (km) Brightness Sun altitude
Exits shadow 00:18:31 26° 196° (SSW) 1,843 4.8 -17.0°
Maximum altitude 00:22:19 78° 280° (W) 1,027 4.1 -16.8°
Drops below altitude 10° 00:28:44 10° 8° (N) 2,787 7.6 -16.5°
Sets 00:31:17 0° 9° (N) 3,741 8.7 -16.3°
